Flag for U.S.A. Weather past 2 weeks in Pasco, Washington, U.S.A.

Now
93 °F

Sunny.


Feels Like: 91 °F
Forecast: 64 / 103 °F
Wind: 8 mph from Northeast

Location: Tri-Cities Airport

Current Time: Jul 1, 2015 at 8:51:58 PM

Latest Report: Jul 1, 2015 at 7:53 PM


Visibility: 10 mi

Pressure: 29.82 "Hg

Humidity: 28%

Dew point: 55 °F

Location of PascoLocation

Historic Weather in Pasco — Graph

°F

Pasco temperature yesterday

Maximum temperature yesterday: 101 °F (at 3:53 PM)
Minimum temperature yesterday: 68 °F (at 5:53 AM)
Average temperature yesterday: 87 °F

Past Weeks' High & Low Weather Summary

 TemperatureHumidityPressure
High110 °F (Jun 27, 3:53 PM)85% (Jul 1, 5:53 AM)30.08 "Hg (Jul 1, 5:53 AM)
Low54 °F (Jun 20, 2:53 AM)12% (Jun 27, 4:53 PM)29.65 "Hg (Jun 28, 6:53 PM)
Average80 °F39%29.90 "Hg
* Reported Jun 16 6:53 PM — Jul 1 6:53 PM, Pasco, Weather by CustomWeather, © 2015

Note: Actual official high and low records may vary slightly from our data, if they occured in-between our weather recording intervals... More about our weather records

Advertising

Pasco weather history for previous 24 hours

 ConditionsComfort  
Time TempWeatherWind HumidityBarometerVisibility
6:53 PM
Wed, Jul 1
97 °FSunny.10 mph21%29.82 "Hg10 mi
5:53 PM100 °FSunny.10 mph17%29.83 "Hg10 mi
4:53 PM100 °FSunny.8 mph18%29.84 "Hg10 mi
3:53 PM100 °FSunny.7 mph18%29.86 "Hg10 mi
2:53 PM98 °FSunny.9 mph21%29.88 "Hg10 mi
1:53 PM96 °FSunny.6 mph23%29.90 "Hg10 mi
12:53 PM95 °FSunny.8 mph23%29.92 "Hg10 mi
11:53 AM92 °FSunny.9 mph27%29.93 "Hg10 mi
10:53 AM90 °FSunny.7 mph28%29.93 "Hg10 mi
9:53 AM88 °FSunny.6 mph30%29.94 "Hg10 mi
8:53 AM84 °FSunny.No wind33%29.95 "Hg10 mi
7:53 AM80 °FSunny.No wind41%29.95 "Hg10 mi
6:53 AM72 °FSunny.No wind68%29.95 "Hg10 mi
5:53 AM65 °FClear.No wind85%29.94 "Hg9 mi
4:53 AM65 °FClear.No wind81%29.93 "Hg10 mi
3:53 AM68 °FClear.3 mph70%29.91 "Hg10 mi
2:53 AM74 °FClear.No wind56%29.90 "Hg10 mi
1:53 AM76 °FClear.6 mph50%29.90 "Hg10 mi
12:53 AM76 °FClear.7 mph52%29.88 "Hg10 mi
11:53 PM
Tue, Jun 30
78 °FClear.12 mph46%29.87 "Hg10 mi
10:53 PM82 °FClear.10 mph37%29.86 "Hg10 mi
8:53 PM95 °FSunny.6 mph23%29.82 "Hg10 mi
Weather by CustomWeather, © 2015

See weather overviewHow to use our weather pages